Location: Argonnex
(45.9500°N, 6.1333°E)
Time: 06:58:31
(UTC+00:00)

CSL-04 Debris - Pass Details

Date: 28 January 2023
Orbit: 826 x 846 km, 98.8° (Epoch: 21 March)

Event Time Altitude Azimuth Distance (km) Brightness Sun altitude
Exits shadow 18:37:52 43° 66° (ENE) 1,161 4.4 -21.4°
Drops below altitude 10° 18:42:54 10° 358° (N) 2,448 6.6 -22.3°
Sets 18:45:21 0° 352° (N) 3,383 7.4 -22.7°
